Content
SEND FEEDBACK

Daily
Averages
Monthly
Summary
United States of America

HAWLEY, OKLAHOMA


Home > North America > United States > Oklahoma
Elevation: 1200 feet     Latitude: 36 44N     Longitude: 098 07W

WEATHER
 
SELECT A DAY
Number of Records: 177,374;   Date Range: 1/3/95 - 12/17/14
 
SHARE

PRINT THIS DATA

[ ← Previous Day ]
WEATHER ALMANAC - JANUARY 23, 2013
[ Next Day → ]
[ °C ]   °F
Weather ElementAverageHighLow
Temperature42.1 °F60.8 °F (2:55 pm)21.2 °F (7:55 am)
Dewpoint31 °F39.2 °F (3:55 pm)19.4 °F (5:55 am)
Humidity67.1 %93 % (7:55 am)42 % (2:55 pm)
Barometer30.19 in30.24 in (9:55 am)30.12 in (3:55 pm)
Wind Speed5.4 mph17.3 mph (11:55 pm)
Wind Gust21.9 mph (11:55 pm)
Weather ElementAverage
Visibility10 mi
Wind DirectionSE (132.2 °)

Weather ElementTotal
Precipitation---
Heating Degree Days24 (Base 65)
Averaged from 23 records on January 23, 2013
WEATHER CONDITIONS BREAKOUT
WIND DIRECTION BREAKOUT
WEATHER BY HOUR - JANUARY 23, 2013
[ °C ]   °F
Local TimeTemperatureDewpointHumidityBarometerVisibilityWind DirectionWind SpeedGust SpeedPrecipitationEventsConditions
1:55 AM28.9 °F23.0 °F78 %30.19 in10.0 miCalmClear
2:55 AM23.9 °F20.7 °F87 %30.21 in10.0 miNW (320°)5.8 mphClear
3:55 AM26.6 °F21.2 °F80 %30.19 in10.0 miNNE (20°)4.6 mphScattered Clouds
4:55 AM26.6 °F21.2 °F80 %30.19 in10.0 miCalmMostly Cloudy
5:55 AM23.0 °F19.4 °F86 %30.21 in10.0 miNNW (330°)1.2 mphMostly Cloudy
6:55 AM23.0 °F19.4 °F86 %30.21 in10.0 miWest (270°)2.3 mphMostly Cloudy
7:55 AM21.2 °F19.4 °F93 %30.22 in10.0 miWNW (290°)5.8 mphMostly Cloudy
8:55 AM30.2 °F26.6 °F86 %30.23 in10.0 miNNW (330°)2.3 mphMostly Cloudy
9:55 AM39.2 °F28.4 °F65 %30.24 in10.0 miWNW (290°)4.6 mphMostly Cloudy
10:55 AM46.4 °F30.2 °F53 %30.23 in10.0 miSW (230°)3.5 mphMostly Cloudy
11:55 AM51.8 °F33.8 °F50 %30.20 in10.0 miVariable3.5 mphMostly Cloudy
12:55 PM55.4 °F35.6 °F47 %30.16 in10.0 miVariable4.6 mphMostly Cloudy
1:55 PM59.0 °F37.4 °F45 %30.14 in10.0 miSW (230°)4.6 mphMostly Cloudy
2:55 PM60.8 °F37.4 °F42 %30.13 in10.0 miSouth (180°)5.8 mphMostly Cloudy
3:55 PM59.0 °F39.2 °F48 %30.12 in10.0 miSSE (150°)5.8 mphMostly Cloudy
4:55 PM57.2 °F39.2 °F51 %30.13 in10.0 miEast (80°)3.5 mphMostly Cloudy
5:55 PM53.6 °F39.2 °F58 %30.13 in10.0 miEast (100°)4.6 mphMostly Cloudy
6:55 PM48.2 °F39.0 °F71 %30.17 in10.0 miNE (40°)5.8 mphClear
7:55 PM48.4 °F37.0 °F65 %30.17 in10.0 miNE (40°)8.1 mphClear
8:55 PM48.4 °F36.5 °F64 %30.18 in10.0 miNE (50°)9.2 mphClear
9:55 PM48.6 °F37.8 °F66 %30.19 in10.0 miNE (40°)9.2 mphClear
10:55 PM46.0 °F36.0 °F68 %30.21 in10.0 miNNE (20°)11.5 mphClear
11:55 PM42.6 °F34.9 °F74 %30.22 in10.0 miNNE (30°)17.3 mph21.9 mphClear
Hourly data recorded from KEND, located miles away from Hawley, Oklahoma







STORIES FROM OUR PARTNERS